Lapse_Rate
5.7 5.7 6.4 6.4 6.0 6.7 6.2 6.0 5.7 5.6 5.6 5.3 5.7 6.1 6.5 6.5 6.6 6.7 6.5 6.5 6.7 7.1 7.3 7.5 7.6 7.6 7.6 7.8 7.4 7.0 7.1 6.6 6.3 6.1 5.7 5.7 5.6 5.5 5.7 5.8 5.9 5.9 5.7 5.7
6.4 6.6 6.3 6.3 6.5 6.8 6.3 6.1 5.9 6.1 5.6 6.1 6.1 5.7 6.2 6.8 7.1 6.4 5.7 6.2 6.6 7.0 7.1 7.1 7.6 7.4 7.7 7.6 7.5 7.2 7.1 6.8 6.1 6.1 5.6 5.7 5.7 5.7 5.7 5.9 5.7 5.8 5.7 5.6
5.8 6.4 6.3 6.6 6.5 6.4 6.7 6.9 6.6 6.3 6.4 6.4 6.4 6.4 6.3 6.5 6.3 7.0 6.8 6.6 6.6 6.7 7.1 7.0 7.0 7.3 7.5 7.6 7.4 7.5 7.2 6.4 6.3 6.1 5.9 5.9 5.9 5.5 5.5 5.5 5.6 5.7 5.6 5.7
6.1 6.1 6.3 6.6 6.9 7.2 7.1 7.0 6.9 7.3 7.1 7.2 6.5 6.6 6.4 6.0 6.5 6.8 7.1 6.5 6.6 6.8 7.0 7.0 7.1 7.3 7.2 7.6 7.5 7.2 6.5 6.2 6.3 5.9 6.1 6.0 5.4 5.4 5.6 5.5 5.5 5.6 5.6 5.8
7.2 7.2 7.3 7.0 7.2 7.6 8.0 7.7 7.5 7.7 7.3 7.0 7.4 7.7 6.6 6.8 7.0 6.4 6.7 7.2 7.3 7.0 7.3 7.4 6.6 6.8 7.1 7.0 6.7 6.4 6.3 6.4 5.9 5.7 5.8 5.8 5.4 5.6 5.4 5.4 5.6 5.6 5.7 5.8
7.8 8.0 8.0 8.1 7.4 7.9 8.0 7.9 8.1 8.2 8.2 8.2 7.6 7.3 7.4 7.3 7.2 7.3 7.6 7.3 7.5 7.6 7.7 7.4 7.2 7.3 6.8 6.7 6.7 6.6 6.2 5.6 5.7 5.7 5.7 5.5 5.4 5.2 5.3 5.3 5.5 5.7 5.7 5.6
7.8 8.0 7.9 8.1 7.9 7.6 7.2 8.0 8.1 8.0 7.9 7.7 7.6 7.0 7.2 7.4 7.7 7.6 7.6 7.7 7.8 7.8 7.8 7.5 7.3 6.9 6.9 6.6 6.6 6.6 5.7 6.1 6.0 5.8 5.7 5.3 5.2 5.3 5.3 5.4 5.5 5.7 5.7 5.5
7.8 7.8 7.8 8.2 8.2 8.2 7.6 8.0 7.7 7.9 7.8 7.9 7.7 7.3 7.5 7.3 7.5 7.6 7.3 7.3 7.8 7.9 7.9 7.6 7.3 7.5 7.2 6.9 6.5 6.1 6.2 5.9 5.7 5.7 5.1 5.2 5.2 5.1 5.4 5.4 5.6 5.7 5.5 5.2
7.9 8.0 8.3 8.2 8.3 8.3 8.0 7.8 8.0 7.9 8.0 8.0 7.9 7.8 7.8 7.9 7.7 8.0 8.0 8.0 7.8 7.8 7.8 7.6 7.5 7.7 7.6 7.0 6.7 6.5 5.9 5.8 5.7 5.1 5.1 5.2 5.2 5.3 5.4 5.5 5.5 5.5 5.2 5.2
7.6 8.2 8.2 8.3 7.8 7.9 8.1 8.1 7.8 7.9 8.0 8.1 8.2 8.3 8.3 8.0 7.9 7.7 8.0 8.1 8.1 8.0 7.8 7.8 7.7 7.5 7.1 6.9 6.0 6.2 6.2 5.9 5.3 5.3 5.4 5.2 5.4 5.6 5.5 5.4 5.5 5.3 5.2 5.3
7.7 7.9 8.3 8.5 8.1 7.9 8.0 7.9 7.8 7.7 7.7 7.8 8.2 8.1 8.0 7.7 7.7 7.6 7.5 7.4 7.2 7.2 7.4 7.4 7.3 7.1 6.9 6.8 6.5 6.2 6.1 5.9 5.6 5.5 5.3 5.6 5.5 5.4 5.4 5.4 5.5 5.2 5.2 5.2
7.9 8.5 8.1 8.4 8.3 8.1 8.0 8.0 7.8 7.7 8.0 8.1 8.2 7.9 7.8 7.4 7.4 7.4 6.9 6.8 7.0 7.2 7.0 6.8 7.0 6.9 6.8 6.6 6.4 6.0 5.8 5.6 5.6 5.6 5.7 5.4 5.4 5.4 5.4 5.5 5.2 5.0 5.1 5.2
8.5 8.5 8.1 8.1 8.2 8.2 8.1 7.8 7.6 7.7 8.0 7.7 7.7 7.7 7.8 7.1 7.3 6.9 6.7 6.9 7.0 7.3 7.3 6.7 6.6 6.4 6.2 6.1 6.3 6.0 5.9 5.7 5.9 5.7 5.5 5.5 5.4 5.5 5.5 5.2 5.1 5.1 5.1 5.2
8.6 8.2 8.2 8.0 8.0 8.2 7.9 7.9 7.9 7.7 7.4 7.6 7.3 7.5 7.7 7.4 7.1 6.9 6.7 6.8 7.0 7.0 7.0 6.6 6.5 6.3 6.5 6.3 6.1 5.8 5.8 5.9 5.7 5.6 5.5 5.4 5.5 5.3 5.1 5.0 5.0 5.0 5.1 5.3
8.0 8.1 7.6 7.6 7.6 7.9 8.0 7.9 7.9 7.7 7.4 7.4 7.4 7.3 6.8 7.0 7.0 7.0 6.9 6.8 6.8 6.6 6.5 6.4 6.3 6.3 6.1 5.9 5.9 5.8 5.8 5.8 5.6 5.5 5.4 5.3 5.2 5.1 5.0 5.0 4.9 4.9 5.1 5.2
7.9 8.0 7.8 7.9 7.9 7.5 7.7 7.8 7.9 7.7 7.1 7.0 7.1 6.7 6.6 6.7 6.7 6.4 6.4 6.4 6.3 6.2 6.1 6.0 6.1 6.1 6.3 6.1 5.8 5.8 5.7 5.7 5.6 5.5 5.4 5.3 5.2 5.1 5.0 4.9 4.8 5.0 5.2 5.3
7.3 7.5 7.5 7.8 7.8 7.9 7.7 7.6 7.5 7.1 7.0 7.3 6.8 6.5 6.4 6.4 6.2 6.2 6.4 6.6 6.6 6.4 6.2 6.2 6.2 6.0 5.9 5.9 5.8 5.7 5.8 5.8 5.6 5.6 5.6 5.5 5.3 5.1 4.9 4.9 5.0 5.2 5.4 5.6
7.2 7.2 7.6 7.7 7.7 7.9 7.6 7.5 7.3 7.1 7.1 6.8 6.5 6.6 6.6 6.5 6.4 6.5 6.7 6.5 6.3 6.2 6.1 6.0 5.9 5.9 5.9 5.8 5.8 5.9 5.8 5.7 5.6 5.6 5.4 5.2 5.0 4.8 4.8 4.9 5.2 5.4 5.4 5.6
6.9 7.2 7.4 7.5 7.5 7.5 7.6 7.4 7.1 7.0 6.7 6.6 6.7 6.7 6.8 6.8 6.8 6.6 6.4 6.3 6.2 6.0 6.0 6.0 6.0 5.8 5.8 5.9 5.9 5.8 5.6 5.5 5.4 5.3 5.3 5.1 4.9 5.0 5.1 5.3 5.4 5.4 5.4 5.6
7.2 7.5 7.3 7.4 7.4 7.4 7.6 7.2 6.8 6.8 6.8 6.9 7.0 6.8 6.8 6.7 6.5 6.3 6.2 6.2 6.2 6.2 6.0 5.9 5.9 5.8 5.8 5.9 5.9 5.8 5.6 5.4 5.3 5.1 5.0 4.9 5.0 5.3 5.5 5.6 5.5 5.6 5.7 5.6
7.0 6.9 7.2 7.1 7.3 7.4 7.2 6.8 6.8 6.8 6.9 6.9 6.8 6.6 6.5 6.3 6.3 6.2 6.2 6.1 6.0 6.0 5.9 5.8 5.9 5.9 5.9 5.9 5.8 5.6 5.5 5.3 5.1 5.0 5.0 5.3 5.7 5.8 5.8 5.8 5.7 5.7 5.6 5.5
6.9 6.9 6.9 6.9 6.9 7.0 6.7 6.7 6.8 6.7 6.7 6.7 6.7 6.6 6.6 6.4 6.3 6.2 6.2 6.1 6.0 6.0 6.0 6.0 6.0 5.9 5.9 5.8 5.7 5.5 5.4 5.2 5.1 5.1 5.3 5.6 5.8 5.8 5.8 5.9 5.8 5.6 5.4 5.2
7.1 7.1 7.2 6.7 6.6 6.6 6.6 6.7 6.6 6.5 6.5 6.5 6.5 6.5 6.5 6.3 6.2 6.2 6.2 6.2 6.1 6.1 6.1 6.0 6.1 6.0 5.9 5.7 5.6 5.5 5.4 5.1 5.0 5.3 5.6 5.8 5.8 5.8 5.9 5.7 5.6 5.4 5.2 5.0
6.6 6.5 6.7 6.7 6.6 6.6 6.7 6.7 6.6 6.6 6.6 6.7 6.7 6.6 6.4 6.3 6.3 6.3 6.3 6.3 6.2 6.1 6.1 6.2 6.2 6.0 5.8 5.7 5.6 5.5 5.2 5.1 5.3 5.5 5.8 5.9 5.9 5.8 5.8 5.7 5.4 5.2 5.0 4.9
6.7 6.7 6.6 6.6 6.7 6.9 6.8 6.7 6.8 6.8 6.8 6.6 6.5 6.5 6.5 6.5 6.5 6.4 6.3 6.3 6.2 6.3 6.4 6.4 6.2 6.0 5.9 5.8 5.6 5.3 5.1 5.4 5.6 5.6 5.8 5.9 5.9 5.8 5.7 5.4 5.2 4.9 4.8 4.7
6.8 6.7 6.7 6.5 6.6 6.8 6.9 6.9 6.8 6.8 6.7 6.7 6.7 6.8 6.7 6.7 6.6 6.5 6.4 6.4 6.4 6.5 6.6 6.5 6.2 6.1 5.9 5.8 5.5 5.3 5.4 5.7 5.6 5.6 5.6 5.8 5.8 5.6 5.4 5.1 4.9 4.8 4.7 4.6
6.9 6.9 7.0 7.3 7.1 7.0 7.0 6.9 6.8 6.8 6.8 6.9 6.9 6.9 6.8 6.7 6.6 6.6 6.6 6.7 6.7 6.6 6.6 6.5 6.3 6.2 6.0 5.8 5.6 5.5 5.7 5.7 5.6 5.6 5.7 5.6 5.4 5.3 5.1 4.9 4.8 4.7 4.5 4.4
Wind_Speed
12 11 12 17 18 18 14 12 7 11 14 24 22 23 20 17 15 11 9 9 12 14 14 15 16 16 16 16 16 16 15 14 13 12 11 10 8 7 7 6 6 6 7 5
17 17 11 15 20 24 16 18 20 24 23 22 24 22 19 16 12 13 14 14 17 18 17 17 19 18 17 17 18 16 14 13 13 11 11 10 8 8 7 7 6 8 6 8
13 18 12 10 21 16 20 22 15 15 19 18 19 20 15 17 16 15 15 18 18 20 20 20 20 19 19 18 16 15 14 13 12 11 10 9 8 8 7 7 7 7 7 7
10 14 12 10 10 18 24 22 16 16 19 20 16 18 17 17 19 15 9 15 13 14 14 15 15 15 15 15 16 15 14 12 11 10 9 8 9 8 7 7 8 7 8 7
5 10 15 12 17 8 7 12 12 8 6 6 16 15 19 19 10 5 11 10 15 17 17 17 18 16 17 16 15 15 15 13 11 11 10 9 9 8 7 9 8 7 7 6
7 10 10 9 13 6 6 8 6 8 7 12 12 6 11 8 7 9 4 10 9 12 14 16 17 18 18 17 15 14 12 11 10 9 10 9 8 8 6 8 9 8 8 5
13 10 8 8 10 15 6 5 3 2 5 8 4 7 8 10 3 3 3 7 11 14 15 16 17 18 17 16 14 12 12 11 10 10 10 9 7 7 8 8 9 8 7 4
10 12 14 11 3 8 7 2 4 7 8 5 8 7 6 5 3 5 10 12 12 12 12 14 15 14 16 14 14 14 12 11 10 10 8 7 10 7 7 8 8 7 6 4
8 5 5 5 5 7 8 14 8 9 9 9 8 7 2 1 3 5 8 9 10 13 13 13 12 13 15 14 14 13 13 12 11 10 9 9 10 8 6 6 5 5 4 3
7 18 18 17 8 6 11 13 11 9 10 9 9 6 5 4 6 6 7 11 12 13 14 12 12 14 16 13 13 13 12 11 10 9 8 7 6 5 5 4 4 4 3 3
6 10 8 9 6 8 9 9 8 9 7 8 6 5 6 5 6 6 7 8 11 14 13 14 13 13 13 13 13 11 10 9 8 6 7 5 4 5 4 2 5 4 3 3
10 9 7 9 7 7 9 9 11 9 7 5 7 10 7 8 6 8 8 7 9 10 14 13 13 13 13 12 12 12 10 7 6 5 4 4 5 2 3 8 7 8 8 7
14 9 11 14 8 10 14 14 12 11 7 5 5 10 9 9 6 11 10 10 11 11 11 13 13 12 11 9 10 10 9 8 6 6 5 4 2 4 3 3 4 4 6 6
12 2 11 11 13 10 8 12 7 4 5 6 8 9 11 10 9 9 9 8 11 12 9 11 10 8 7 8 8 8 8 9 6 5 5 4 4 3 3 3 2 2 3 1
18 16 19 18 15 16 10 4 4 4 6 8 8 12 13 13 12 10 9 9 9 9 7 9 10 5 4 7 8 8 7 5 5 4 4 4 4 4 3 3 2 2 2 3
13 10 11 9 13 9 6 6 6 6 7 9 10 10 10 12 11 9 9 11 13 9 7 9 8 5 5 7 7 5 5 8 6 5 4 3 3 3 3 3 2 3 2 3
14 14 7 6 8 6 7 6 6 8 9 10 11 12 11 10 7 8 5 4 7 9 7 9 9 5 5 7 7 5 5 5 7 4 4 4 3 3 3 3 3 3 3 3
14 17 12 9 7 7 6 7 9 11 10 9 10 10 10 11 11 8 6 7 9 7 4 4 7 6 5 6 6 5 5 4 3 4 3 3 3 3 3 3 3 3 3 2
16 13 12 11 7 10 9 9 9 9 9 10 10 9 7 6 8 7 7 8 8 8 4 4 9 8 7 6 6 5 4 4 3 2 2 4 2 3 3 3 3 3 3 2
14 14 11 8 9 9 10 8 9 8 8 9 10 9 8 6 8 8 4 6 3 3 9 9 8 6 7 6 7 3 3 4 4 3 3 3 3 3 3 3 3 3 3 3
4 8 10 11 9 9 10 9 10 9 7 8 12 10 9 7 6 8 7 5 4 6 9 10 6 4 4 5 4 4 3 3 4 4 4 4 3 2 3 3 3 3 2 2
5 6 9 9 10 6 5 8 9 10 8 7 7 9 10 7 6 3 0 3 5 7 6 5 4 6 5 6 4 4 3 4 4 3 3 3 3 3 3 3 3 3 3 3
4 4 5 6 8 8 7 6 6 9 9 8 9 9 8 7 7 7 4 3 6 6 5 5 6 8 7 4 4 4 4 4 4 4 4 4 4 4 3 3 3 3 3 2
3 3 4 5 9 9 9 2 6 6 5 6 6 7 9 7 2 1 2 7 8 8 5 5 6 7 6 4 4 4 3 3 3 3 3 4 3 3 3 3 3 2 2 2
3 3 3 6 7 4 8 7 7 6 6 6 6 5 5 3 3 4 3 4 9 7 4 6 7 7 4 3 4 4 3 3 3 3 3 3 3 3 3 2 3 3 2 2
2 2 2 3 3 6 6 6 5 5 6 5 2 2 3 2 2 6 4 5 5 6 4 4 4 4 4 4 4 3 3 2 3 3 4 4 3 3 3 3 3 3 3 2
2 3 3 3 2 4 4 5 7 6 4 5 5 3 4 3 4 5 5 4 4 4 4 3 4 4 4 4 3 3 3 2 3 4 3 3 3 2 3 3 3 2 2 3
Wind_Direction
269 254 257 275 286 290 262 244 242 298 275 279 283 287 287 300 303 285 250 189 191 189 189 183 172 174 169 162 158 158 159 161 161 155 150 146 149 144 140 141 141 143 131 121
285 279 248 258 265 264 254 256 262 256 263 260 267 274 282 283 281 262 248 222 203 197 188 191 180 175 170 166 161 159 160 160 150 150 147 154 146 142 143 130 134 127 132 139
279 284 289 259 243 257 262 264 257 253 246 260 256 263 280 289 276 270 246 244 212 198 187 187 185 177 172 166 154 153 154 154 148 146 151 148 141 138 135 128 121 127 125 135
274 294 265 247 227 241 250 259 259 265 261 257 257 271 279 277 271 274 244 252 213 190 180 181 171 169 157 156 150 146 143 142 134 139 150 146 141 143 130 128 128 131 133 129
244 249 276 298 269 237 199 250 257 241 286 295 278 281 279 261 260 265 282 239 206 191 177 164 160 156 150 145 142 138 137 135 149 161 151 146 142 143 130 126 120 122 125 113
246 270 273 276 330 258 252 262 276 237 248 265 301 280 268 286 262 255 314 252 191 154 151 152 152 149 144 141 133 127 133 141 157 154 142 142 137 130 125 127 125 120 118 119
251 267 274 241 251 331 253 245 283 282 243 251 225 226 275 300 308 305 37 87 116 135 148 150 147 146 141 135 133 134 132 141 154 136 138 133 126 129 130 126 121 114 116 124
249 251 263 218 232 187 237 267 243 270 253 245 250 259 264 297 59 63 107 115 123 125 131 133 140 138 135 127 127 130 137 141 133 129 132 130 130 129 129 127 122 127 134 133
206 228 236 249 236 261 255 263 247 241 263 257 242 239 220 131 75 82 105 117 121 126 127 131 135 138 126 129 128 130 141 134 129 129 125 143 136 139 134 124 129 137 145 136
236 253 251 259 263 263 261 253 252 242 242 246 233 213 166 150 124 117 119 120 123 125 128 118 112 112 116 125 130 142 137 132 131 125 138 138 132 141 128 124 127 131 141 139
255 276 260 259 241 263 270 254 267 270 258 257 221 179 153 147 132 124 122 124 129 123 119 116 119 122 126 137 143 143 132 128 123 132 134 131 128 143 142 190 149 161 185 160
251 244 227 252 256 273 288 264 266 260 279 257 186 166 148 145 136 134 123 114 114 121 126 130 128 133 139 149 147 138 132 131 135 129 131 133 127 67 138 144 179 185 179 175
250 247 234 272 267 282 269 257 258 267 237 206 182 146 144 140 126 119 116 118 125 122 118 129 131 133 135 138 133 132 135 140 137 135 136 132 120 144 130 3 15 213 219 223
246 225 275 259 276 268 247 260 263 239 206 187 139 128 130 121 103 106 106 104 112 120 131 125 123 113 116 119 120 120 130 137 143 142 136 140 150 141 121 137 153 299 6 310
256 250 257 266 273 268 259 209 193 137 124 108 117 128 129 126 123 120 112 116 116 113 106 109 116 118 100 116 121 129 133 143 139 134 144 143 131 119 125 126 162 211 337 337
257 246 246 238 252 268 194 171 141 134 126 125 127 124 122 121 116 123 139 150 137 144 133 126 130 146 129 119 121 124 127 134 137 143 135 118 127 134 126 140 182 210 213 233
253 251 231 236 233 218 207 173 158 145 136 138 129 125 117 116 120 132 108 72 103 133 138 142 150 153 126 135 141 138 133 140 139 125 145 157 157 163 160 162 199 206 227 225
249 258 244 220 203 167 164 142 135 141 144 133 127 127 136 150 159 145 127 109 98 83 83 116 133 136 138 136 131 138 137 135 140 157 150 136 167 158 164 190 195 201 245 263
246 235 230 212 179 150 147 143 143 138 134 139 138 145 128 108 131 129 128 119 128 142 201 140 154 143 141 148 133 128 130 140 140 129 144 151 140 164 177 188 204 220 227 249
257 225 195 167 136 142 129 129 126 124 126 119 117 119 118 128 134 129 114 132 145 157 146 161 152 149 147 155 144 137 139 159 169 166 158 162 167 182 200 203 215 230 231 243
1 127 124 126 113 123 131 142 135 138 131 142 148 149 145 135 126 132 126 147 190 149 150 152 148 141 144 147 141 137 130 141 146 159 168 181 175 189 200 205 201 205 230 229
341 105 116 122 126 105 106 127 121 126 129 114 101 117 129 133 130 84 56 165 158 149 144 153 147 154 150 144 143 141 150 158 166 158 150 167 180 185 205 193 200 204 209 202
29 63 86 111 128 126 93 87 118 139 139 140 144 148 154 159 162 156 166 183 144 154 146 148 151 159 152 144 145 153 163 167 172 180 183 182 185 190 186 186 192 181 188 209
5 70 85 93 114 115 118 84 104 98 107 112 123 141 144 140 60 69 112 143 141 151 147 152 158 155 149 152 151 160 173 187 184 186 179 180 171 155 150 164 172 185 181 196
68 58 97 122 124 106 119 125 111 113 116 113 121 132 126 106 141 180 135 136 147 144 139 149 151 146 141 144 151 160 166 171 182 177 173 159 159 149 152 165 172 184 193 215
112 96 100 85 125 140 139 144 138 141 133 127 81 126 114 111 113 138 130 136 140 137 141 146 144 139 140 141 145 150 156 167 171 162 148 138 142 150 152 157 169 187 212 234
86 109 110 93 84 132 142 144 147 160 147 147 136 165 152 140 115 126 124 136 139 137 137 135 138 139 136 138 145 162 174 173 143 134 128 134 137 144 156 175 191 207 220 230